Location: Shenandoah County Park
(38.9356°N, 78.4524°W)
Time: 14:25:27
(UTC-05:00)

Vanguard 2 Rocket - Pass Details

Date: 07 December 2023
Orbit: 555 x 3309 km, 32.9° (Epoch: 03 March)

Event Time Altitude Azimuth Distance (km) Brightness Sun altitude
Rises 12:28:02 0° 217° (SW) 5,321 11.7 28.2°
Reaches altitude 10° 12:31:19 10° 210° (SSW) 4,658 11.8 28.1°
Maximum altitude 12:44:21 43° 145° (SE) 3,676 10.9 27.8°
Drops below altitude 10° 13:02:04 10° 83° (E) 6,267 11.0 27.0°
Sets 13:07:20 0° 78° (ENE) 7,263 11.2 26.7°
